TimeCST,TemperatureF,Dew PointF,Humidity,Sea Level PressureIn,VisibilityMPH,Wind Direction,Wind SpeedMPH,Gust SpeedMPH,PrecipitationIn,Events,Conditions,WindDirDegrees,DateUTC
12:15 AM,51.8,51.8,100,29.61,1.0,East,8.1,-,N/A,,Overcast,90,2013-12-04 06:15:00
12:35 AM,51.8,51.8,100,29.60,0.8,East,9.2,-,N/A,,Overcast,90,2013-12-04 06:35:00
12:55 AM,51.8,51.8,100,29.60,0.5,East,9.2,-,N/A,,Overcast,90,2013-12-04 06:55:00
1:15 AM,51.8,51.8,100,29.59,0.5,East,11.5,-,N/A,,Overcast,90,2013-12-04 07:15:00
1:35 AM,51.8,51.8,100,29.60,0.8,East,9.2,-,N/A,,Overcast,90,2013-12-04 07:35:00
1:55 AM,51.8,51.8,100,29.59,1.2,East,8.1,-,N/A,,Overcast,100,2013-12-04 07:55:00
2:15 AM,51.8,51.8,100,29.59,1.0,East,9.2,-,N/A,,Overcast,100,2013-12-04 08:15:00
2:35 AM,51.8,51.8,100,29.58,1.5,East,12.7,-,N/A,,Overcast,100,2013-12-04 08:35:00
2:55 AM,51.8,51.8,100,29.58,1.5,East,10.4,16.1,N/A,,Overcast,100,2013-12-04 08:55:00
3:15 AM,51.8,51.8,100,29.58,2.0,East,8.1,-,N/A,,Overcast,100,2013-12-04 09:15:00
3:35 AM,51.8,51.8,100,29.59,2.0,East,6.9,-,N/A,,Overcast,100,2013-12-04 09:35:00
3:55 AM,51.8,51.8,100,29.58,2.0,ESE,9.2,-,N/A,,Overcast,110,2013-12-04 09:55:00
4:15 AM,51.8,51.8,100,29.59,2.5,East,9.2,-,N/A,,Overcast,90,2013-12-04 10:15:00
4:35 AM,51.8,51.8,100,29.59,2.0,East,10.4,-,N/A,,Overcast,100,2013-12-04 10:35:00
4:55 AM,51.8,51.8,100,29.59,2.5,East,8.1,-,N/A,,Overcast,100,2013-12-04 10:55:00
5:15 AM,51.8,51.8,100,29.58,2.5,East,11.5,-,N/A,,Overcast,100,2013-12-04 11:15:00
5:35 AM,51.8,51.8,100,29.58,2.5,East,9.2,-,N/A,,Overcast,100,2013-12-04 11:35:00
5:55 AM,51.8,51.8,100,29.58,2.5,ESE,9.2,-,N/A,,Overcast,110,2013-12-04 11:55:00
6:15 AM,51.8,51.8,100,29.59,2.5,East,8.1,-,N/A,,Overcast,80,2013-12-04 12:15:00
6:35 AM,51.8,51.8,100,29.59,2.0,East,10.4,-,N/A,,Overcast,90,2013-12-04 12:35:00
6:55 AM,51.8,51.8,100,29.60,2.5,ENE,6.9,-,N/A,,Overcast,60,2013-12-04 12:55:00
7:15 AM,51.8,51.8,100,29.62,1.0,East,4.6,-,N/A,,Overcast,80,2013-12-04 13:15:00
7:35 AM,51.8,51.8,100,29.63,1.2,ESE,6.9,-,N/A,,Overcast,110,2013-12-04 13:35:00
7:55 AM,51.8,51.8,100,29.64,1.8,East,5.8,-,N/A,,Mostly Cloudy,80,2013-12-04 13:55:00
8:15 AM,51.8,51.8,100,29.63,1.0,East,8.1,-,N/A,,Overcast,90,2013-12-04 14:15:00
8:35 AM,51.8,51.8,100,29.64,0.8,Calm,Calm,-,N/A,,Overcast,0,2013-12-04 14:35:00
8:55 AM,51.8,51.8,100,29.66,1.0,East,3.5,-,N/A,,Overcast,90,2013-12-04 14:55:00
9:15 AM,53.6,53.6,100,29.67,1.8,ENE,4.6,-,N/A,,Overcast,70,2013-12-04 15:15:00
9:35 AM,53.6,53.6,100,29.67,4.0,Calm,Calm,-,N/A,,Scattered Clouds,0,2013-12-04 15:35:00
9:55 AM,57.2,53.6,88,29.69,7.0,Calm,Calm,-,N/A,,Clear,0,2013-12-04 15:55:00
10:15 AM,59.0,51.8,77,29.69,10.0,SW,3.5,-,N/A,,Clear,220,2013-12-04 16:15:00
10:35 AM,60.8,50.0,68,29.71,10.0,West,10.4,-,N/A,,Clear,260,2013-12-04 16:35:00
10:55 AM,60.8,48.2,63,29.71,10.0,West,10.4,17.3,N/A,,Clear,260,2013-12-04 16:55:00
11:15 AM,60.8,46.4,59,29.71,10.0,West,11.5,17.3,N/A,,Clear,260,2013-12-04 17:15:00
11:35 AM,59.0,44.6,59,29.71,10.0,West,11.5,17.3,N/A,,Clear,280,2013-12-04 17:35:00
11:55 AM,59.0,44.6,59,29.71,10.0,West,15.0,-,N/A,,Clear,270,2013-12-04 17:55:00
12:15 PM,57.2,44.6,63,29.72,10.0,WNW,17.3,-,N/A,,Clear,300,2013-12-04 18:15:00
12:35 PM,55.4,44.6,67,29.72,10.0,WNW,13.8,24.2,N/A,,Clear,300,2013-12-04 18:35:00
12:55 PM,55.4,44.6,67,29.72,10.0,WNW,13.8,-,N/A,,Clear,290,2013-12-04 18:55:00
1:15 PM,55.4,42.8,63,29.72,10.0,WNW,16.1,-,N/A,,Clear,300,2013-12-04 19:15:00
1:35 PM,53.6,42.8,67,29.72,10.0,WNW,10.4,-,N/A,,Clear,290,2013-12-04 19:35:00
1:55 PM,53.6,42.8,67,29.72,10.0,West,12.7,-,N/A,,Clear,280,2013-12-04 19:55:00
2:15 PM,55.4,42.8,63,29.73,7.0,WNW,11.5,-,N/A,,Clear,290,2013-12-04 20:15:00
2:35 PM,53.6,42.8,67,29.74,7.0,West,10.4,-,N/A,,Scattered Clouds,270,2013-12-04 20:35:00
2:55 PM,51.8,42.8,71,29.75,7.0,West,11.5,-,N/A,,Mostly Cloudy,280,2013-12-04 20:55:00
3:15 PM,50.0,42.8,76,29.76,5.0,NW,12.7,-,N/A,,Mostly Cloudy,320,2013-12-04 21:15:00
3:35 PM,50.0,42.8,76,29.77,4.0,WNW,13.8,-,N/A,,Mostly Cloudy,300,2013-12-04 21:35:00
3:55 PM,48.2,41.0,76,29.77,5.0,NW,11.5,-,N/A,,Mostly Cloudy,310,2013-12-04 21:55:00
4:15 PM,48.2,41.0,76,29.78,5.0,WNW,10.4,-,N/A,,Mostly Cloudy,300,2013-12-04 22:15:00
4:35 PM,46.4,41.0,81,29.78,7.0,NW,11.5,-,N/A,,Overcast,310,2013-12-04 22:35:00
4:55 PM,46.4,41.0,81,29.80,7.0,NW,10.4,18.4,N/A,,Overcast,310,2013-12-04 22:55:00
5:15 PM,44.6,39.2,81,29.82,7.0,WNW,10.4,-,N/A,,Overcast,300,2013-12-04 23:15:00
5:35 PM,44.6,37.4,76,29.83,10.0,WNW,11.5,-,N/A,,Overcast,300,2013-12-04 23:35:00
5:55 PM,44.6,37.4,76,29.84,10.0,NW,10.4,-,N/A,,Overcast,310,2013-12-04 23:55:00
6:15 PM,44.6,37.4,76,29.85,10.0,NW,10.4,-,N/A,,Overcast,320,2013-12-05 00:15:00
6:35 PM,42.8,35.6,76,29.85,10.0,NNW,8.1,-,N/A,,Overcast,330,2013-12-05 00:35:00
6:55 PM,42.8,35.6,76,29.87,10.0,NNW,10.4,-,N/A,,Overcast,330,2013-12-05 00:55:00
7:15 PM,42.8,35.6,76,29.87,10.0,NNW,9.2,-,N/A,,Overcast,330,2013-12-05 01:15:00
7:35 PM,42.8,35.6,76,29.88,10.0,NNW,9.2,-,N/A,,Overcast,330,2013-12-05 01:35:00
7:55 PM,42.8,35.6,76,29.88,10.0,NNW,10.4,-,N/A,,Overcast,340,2013-12-05 01:55:00
8:15 PM,42.8,35.6,76,29.89,10.0,NNW,9.2,-,N/A,,Overcast,330,2013-12-05 02:15:00
8:35 PM,42.8,35.6,76,29.90,10.0,NNW,11.5,16.1,N/A,,Overcast,340,2013-12-05 02:35:00
8:55 PM,42.8,35.6,76,29.90,10.0,NNW,9.2,-,N/A,,Overcast,330,2013-12-05 02:55:00
9:15 PM,42.8,33.8,70,29.91,10.0,NNW,8.1,-,N/A,,Overcast,330,2013-12-05 03:15:00
9:35 PM,41.0,33.8,76,29.92,10.0,NNW,9.2,-,N/A,,Overcast,330,2013-12-05 03:35:00
9:55 PM,41.0,33.8,76,29.92,10.0,North,5.8,-,N/A,,Overcast,350,2013-12-05 03:55:00
10:15 PM,41.0,33.8,76,29.92,10.0,NNW,8.1,-,N/A,,Overcast,340,2013-12-05 04:15:00
10:35 PM,41.0,33.8,76,29.94,10.0,NW,9.2,-,N/A,,Overcast,320,2013-12-05 04:35:00
10:55 PM,41.0,32.0,70,29.95,10.0,NNW,9.2,-,N/A,,Overcast,340,2013-12-05 04:55:00
11:15 PM,41.0,32.0,70,29.97,10.0,NW,12.7,-,N/A,,Overcast,310,2013-12-05 05:15:00
11:55 PM,37.4,32.0,81,29.97,10.0,NNW,12.7,-,N/A,,Overcast,340,2013-12-05 05:55:00